Weather in Varvara

Russia / Tyumen Oblast     57°26′41″N   67°14′14″E
temp.,
°C
wind,
m/s
gust,
m/s
humid.,
%
clouds,
%
prec.,
mm/h
press.,
hPa
HPBL,
m
15 may, sat
sat1523:00+20sw310485 0.0 1019177
02:00+18wsw365430 0.0 1019100
05:00+17w28535 0.0 1019138
08:00+24w24395 0.0 1019338
11:00+28w47285 0.0 10181906
14:00+30w562440 0.0 10173544
17:00+30w57225 0.0 10153230
20:00+27sw4122990 0.0 1013553
16 may, sun
sun1623:00+21w374784 0.1 1014123
02:00+19wsw3565100 0.3 1015108
05:00+17w2107277 0.3 1016287
08:00+22wnw365240 0.0 1016561
11:00+27wnw473933 0.0 10161529
14:00+30wnw51029100 0.0 10152559
17:00+31wnw6122542 0.0 10142990
20:00+26w253885 0.0 101485
17 may, mon
mon1723:00+21w2248100 0.0 101419
02:00+20wnw21048100 0.0 1014217
05:00+18sw225550 0.0 101545
08:00+25w48395 0.0 1015472
11:00+30w610233 0.0 10143174
14:00+32wnw7111890 0.0 10134244
17:00+30w51023100 0.0 10113264
20:00+20nw5135775 0.4 1014854
18 may, tue
tue1823:00+17wsw36685 0.4 1013130
02:00+17w3107029 0.1 1012226
05:00+16w28750 0.1 1011154
08:00+20w2558100 0.0 1011275
11:00+24wnw584380 0.0 10102184
14:00+19wnw5105015 0.0 10111685
17:00+20nnw7116013 0.2 10111561
20:00+14nnw6117555 0.4 1014947
19 may, wed
wed1923:00+11n61278100 0.4 1017908
02:00+11n6117281 0.0 1019939
05:00+9n512670 0.0 1022740
08:00+12nne58390 0.0 10231110
11:00+15n57285 0.0 10241597
14:00+17n5727100 0.0 10241718
17:00+16nne5630100 0.0 10251533
20:00+12nne25415 0.0 1025158